Regional Weather Roundup
Issued by NWS

Home | Current Version | Previous Version | Graphics & Text | Print | Product List | Glossary On
Versions: 1 2 3 4 5 6 7 8 9 10 11 12 13 14 15 16 17 18 19 20 21 22 23 24 25 26 27 28 29 30 31 32 33 34 35 36 37 38 39 40 41 42 43 44 45 46 47 48 49 50
167
ASUS43 KTOP 131559
RWRKS

WEATHER ROUNDUP FOR KANSAS
NATIONAL WEATHER SERVICE GOODLAND KS
1000 AM CST SAT FEB 13 2016

NOTE:  "FAIR" INDICATES FEW OR NO CLOUDS BELOW 12,000 FEET WITH NO
SIGNIFICANT WEATHER AND/OR OBSTRUCTIONS TO VISIBILITY.

KSZ001>006-013>018-027>032-041>047-131700-
NORTHWEST KANSAS

CITY           SKY/WX    TMP DP  RH WIND       PRES   REMARKS
GOODLAND       FOG       25  24  96 S21       30.19F VSB 1/4 WCI  11
HAYS           CLOUDY    25   9  50 SE15      30.39F WCI  12
HILL CITY      CLOUDY    22  15  75 SE15      30.36F WCI   9
RUSSELL        CLOUDY    22  13  68 SE13      30.40F WCI  10
$$

KSZ061>065-074>080-084>089-131700-
SOUTHWEST KANSAS

CITY           SKY/WX    TMP DP  RH WIND       PRES   REMARKS
DODGE CITY     CLOUDY    24  19  81 SE20      30.33F WCI  10
ELKHART          N/A     34  27  76 SE17        N/A  WCI  23
GARDEN CITY    CLOUDY    25  21  85 S22G29    30.27F WCI  10
GREAT BEND     SUNNY     25   9  50 SE15      30.42F WCI  12
LIBERAL        CLOUDY    30  25  80 SE17G24   30.27F WCI  18
$$

KSZ066>073-081>083-090>101-131700-
SOUTHEAST KANSAS

CITY           SKY/WX    TMP DP  RH WIND       PRES   REMARKS
CHANUTE        CLOUDY    27   4  37 E14       30.53F WCI  16
COFFEYVILLE    MOSUNNY   29   6  38 E10       30.53F WCI  20
HUTCHINSON     CLOUDY    26   6  42 SE12G21   30.46F WCI  16
MEDICINE LODGE   N/A     27  12  53 SE10      30.44F WCI  17
NEWTON         MOSUNNY   25   7  46 E13       30.47S WCI  13
PARSONS        MOSUNNY   27   5  39 E8        30.53F
WICHITA INTL   CLOUDY    28   7  41 SE13      30.47S WCI  17
WICHITA JABRA  MOSUNNY   26   6  42 E12       30.46F WCI  16
WICHITA MCCONL SUNNY     28   6  39 E12       30.46F WCI  17
WINFIELD       SUNNY     29   5  36 E12       30.47F WCI  19
$$

KSZ007>012-019>026-033>040-048>060-102>105-131700-
NORTHEAST KANSAS

CITY           SKY/WX    TMP DP  RH WIND       PRES   REMARKS
CONCORDIA      CLOUDY    20   1  43 SE14      30.47F WCI   7
EMPORIA        CLOUDY    24   4  42 E14G20    30.50F WCI  12
LAWRENCE       CLOUDY    20   3  48 SE8       30.57F
MANHATTAN      CLOUDY    22   7  52 E10       30.53F WCI  11
OLATHE IND     CLOUDY    19   1  45 E10       30.56F WCI   7
OLATHE EXE     CLOUDY    17   2  51 E10       30.55F WCI   5
SALINA         CLOUDY    25   2  37 E13       30.48F WCI  14
TOPEKA BILLARD CLOUDY    21   3  45 E8        30.56F
TOPEKA FORBES  CLOUDY    21   2  43 E9        30.54F
$$




USA.gov is the U.S. government's official web portal to all federal, state and local government web resources and services.